Flag Weather past 2 weeks in Mersin, Turkey

Now
64 °F

Partly cloudy.


Feels Like: 64 °F
Forecast: 57 / 72 °F
Wind: 5 mph from Southeast

Location: Adana / Sakirpasa

Current Time: Oct 30, 2014 at 6:26:56 PM

Latest Report: Oct 30, 2014 at 5:50 PM


Visibility: N/A

Pressure: 29.89 "Hg

Humidity: 83%

Dew point: 59 °F

Location of MersinLocation

Historic Weather in Mersin — Graph

°F

Mersin temperature yesterday

Maximum temperature yesterday: 84 °F (at 12:20 PM)
Minimum temperature yesterday: 59 °F (at 4:50 AM)
Average temperature yesterday: 70 °F

Past Weeks' High & Low Weather Summary

 TemperatureHumidityPressure
High84 °F (Oct 29, 12:20 PM)94% (Oct 16, 7:20 AM)30.09 "Hg (Oct 16, 7:20 AM)
Low46 °F (Oct 21, 5:50 AM)14% (Oct 20, 1:50 PM)29.77 "Hg (Oct 19, 2:50 AM)
Average68 °F62%29.97 "Hg
* Reported Oct 15 5:20 PM — Oct 30 4:50 PM, Mersin, Weather by CustomWeather, © 2014

Note: Actual official high and low records may vary slightly from our data, if they occured in-between our weather recording intervals... More about our weather records

Advertising

Mersin weather history for previous 24 hours

 ConditionsComfort  
Time TempWeatherWind HumidityBarometerVisibility
4:50 PM
Oct 30
64 °FPassing clouds.3 mph83%29.89 "HgN/A
4:20 PM66 °FThunderstorms. Broken clouds.13 mph73%29.89 "HgN/A
3:50 PM70 °FScattered clouds.7 mph64%29.89 "HgN/A
3:20 PM72 °FPartly sunny.6 mph61%29.89 "HgN/A
2:50 PM72 °FBroken clouds.6 mph61%29.89 "HgN/A
2:20 PM72 °FBroken clouds.5 mph61%29.89 "HgN/A
1:50 PM72 °FBroken clouds.5 mph61%29.89 "HgN/A
1:20 PM75 °FBroken clouds.3 mph50%29.89 "HgN/A
12:50 PM73 °FBroken clouds.5 mph50%29.89 "HgN/A
12:20 PM72 °FBroken clouds.3 mph50%29.92 "HgN/A
11:50 AM72 °FBroken clouds.2 mph50%29.92 "HgN/A
11:20 AM72 °FBroken clouds.2 mph50%29.92 "HgN/A
10:50 AM72 °FBroken clouds.5 mph50%29.95 "HgN/A
10:20 AM72 °FBroken clouds.9 mph50%29.95 "HgN/A
9:50 AM72 °FScattered clouds.7 mph50%29.95 "HgN/A
9:20 AM70 °FScattered clouds.7 mph57%29.95 "HgN/A
8:50 AM68 °FScattered clouds.3 mph64%29.95 "HgN/A
8:20 AM64 °FScattered clouds.2 mph73%29.95 "HgN/A
7:50 AM63 °FScattered clouds.No wind73%29.95 "HgN/A
7:20 AM63 °FFog.3 mph73%29.95 "Hg3 mi
6:50 AM64 °FBroken clouds.3 mph68%29.95 "HgN/A
6:20 AM63 °FScattered clouds.6 mph73%29.95 "HgN/A
5:50 AM61 °FPassing clouds.7 mph77%29.95 "HgN/A
4:50 AM61 °FPassing clouds.10 mph83%29.98 "HgN/A
4:20 AM63 °FPassing clouds.12 mph77%29.95 "HgN/A
3:50 AM63 °FPassing clouds.10 mph77%29.95 "HgN/A
3:20 AM63 °FPassing clouds.10 mph83%29.95 "HgN/A
2:50 AM63 °FPassing clouds.9 mph83%29.95 "HgN/A
2:20 AM61 °FPassing clouds.7 mph88%29.95 "HgN/A
1:50 AM61 °FThunderstorms. Passing clouds.5 mph83%29.98 "HgN/A
1:20 AM63 °FThunderstorms. Partly cloudy.16 mph77%29.95 "HgN/A
12:50 AM64 °FThunderstorms. Passing clouds.15 mph88%29.98 "HgN/A
12:20 AM68 °FThunderstorms. Passing clouds.3 mph73%29.95 "HgN/A
11:50 PM
Oct 29
66 °FThunderstorms. Passing clouds.5 mph83%29.95 "HgN/A
11:20 PM66 °FThunderstorms. Passing clouds.No wind78%29.95 "HgN/A
10:50 PM66 °FPartly cloudy.No wind78%29.95 "HgN/A
10:20 PM66 °FPassing clouds.2 mph78%29.95 "HgN/A
9:50 PM66 °FPassing clouds.1 mph78%29.95 "HgN/A
9:20 PM64 °FPassing clouds.No wind83%29.95 "HgN/A
8:50 PM64 °FPassing clouds.1 mph78%29.95 "HgN/A
8:20 PM64 °FPassing clouds.6 mph78%29.95 "HgN/A
7:50 PM66 °FPassing clouds.3 mph73%29.95 "HgN/A
7:20 PM68 °FPassing clouds.2 mph69%29.95 "HgN/A
6:50 PM72 °FPassing clouds.3 mph61%29.92 "HgN/A
6:20 PM72 °FPassing clouds.5 mph57%29.92 "HgN/A
Weather by CustomWeather, © 2014

See weather overviewHow to use our weather pages